Tracking 19484 objects as of 20-Jan-2019
HD Live streaming from Space Station
objects crossing your sky now

BSAT-1B

Track BSAT-1B now!
BSAT-1B is classified as:


NORAD ID: 25312
Int'l Code: 1998-024B
Perigee: 36,088.6 km
Apogee: 36,152.7 km
Inclination: 6.0 °
Period: 1,452.8 minutes
Semi major axis: 42491 km
RCS: 15.8489 m2 (large)
Launch date: April 28, 1998
Source: Japan (JPN)
Launch site: FRENCH GUIANA (FRGUI)

8 Ku-band; voice and video communication for Japan and vicinity.
aabbcc
Your satellite tracking list
Your tracking list is empty




NASA's NSSDC Master Catalog

Two Line Element Set (TLE):
1 25312U 98024B   19018.70135705 +.00000084 +00000-0 +00000-0 0  9995
2 25312 006.0169 064.4878 0007538 224.8017 135.1138 00.99116818019332
Source of the keplerian elements: AFSPC